Location: Piotrkow Trybunalski
(51.4000°N, 19.6830°E)
Time: 00:08:06
(UTC+02:00)

STRAND 1 - Pass Details

Date: 01 April 2023
Orbit: 767 x 779 km, 98.4° (Epoch: 06 June)

Event Time Altitude Azimuth Distance (km) Brightness Sun altitude
Rises 05:09:40 0° 127° (SE) 3,247 ? -11.1°
Reaches altitude 10° 05:12:16 10° 116° (ESE) 2,322 ? -10.7°
Maximum altitude 05:16:30 27° 60° (ENE) 1,463 ? -10.1°
Drops below altitude 10° 05:20:44 10° 4° (N) 2,328 ? -9.5°
Sets 05:23:20 0° 353° (N) 3,258 ? -9.1°
